Location: Ç?ral? Körfezi
(36.3984°N, 30.4829°E)
Time: 10:22:17
(UTC+00:00)

COSMOS 2428 - Pass Details

Date: 04 August 2024
Orbit: 842 x 857 km, 70.9° (Epoch: 18 September)

Event Time Altitude Azimuth Distance (km) Brightness Sun altitude
Exits shadow 23:47:48 21° 108° (ESE) 1,796 4.5 -31.4°
Maximum altitude 23:48:18 22° 101° (E) 1,786 4.5 -31.3°
Drops below altitude 10° 23:52:28 10° 53° (NE) 2,472 5.9 -30.9°
Sets 23:55:27 0° 38° (NE) 3,415 7.0 -30.6°
